Weather History for Teterboro, NJ

Change the Weather History Date:

Saturday, February 9, 2013

  Actual Average Record
Temperature  
Mean Temperature 26 °F -  
Max Temperature 32 °F 39 °F 53 °F (2005)
Min Temperature 19 °F 24 °F 12 °F (2003)
Degree Days  
Heating Degree Days 38    
Moisture  
Dew Point 17 °F    
Average Humidity 68    
Maximum Humidity 100    
Minimum Humidity 34    
Precipitation  
Precipitation 0.18 in - - ()
Snow  
Snow 0.00 in - - ()
Snow Depth 8.00 in    
Sea Level Pressure  
Sea Level Pressure 29.98 in    
Wind  
Wind Speed 11 mph (NNW)    
Max Wind Speed 26 mph    
Max Gust Speed 36 mph    
Visibility 8 miles    
Events Fog , Snow    
Averages and records for this station are not official NWS values.
T = Trace of Precipitation, MM = Missing Value Source: NWS Daily Summary

Daily Weather History Graph

Daily Weather History Graph

Search for Another Location

Airport:

Trip Planner

Search our weather history database for the weather conditions in past years. The results will help you decide how hot, cold, wet, or windy it might be!

Date:

Astronomy

Feb. 09, 2013 Rise Set
Actual Time 6:57 AM EST 5:23 PM EST
Civil Twilight 6:29 AM EST 5:52 PM EST
Nautical Twilight 5:56 AM EST 6:24 PM EST
Astronomical Twilight 5:24 AM EST 6:56 PM EST
Moon 6:07 AM EST (2/9) 5:03 PM EST (2/9)
Length of Visible Light 11h 23m
Length of Day
10h 26m
Waning Crescent, 0% of the Moon is Illuminated
Feb 9
Waning Crescent
Feb 10
New
Feb 17
First Quarter
Feb 25
Full
Mar 4
Last Quarter

Hourly Weather History & Observations

Time (EST) Temp. Windchill Dew Point Humidity Pressure Visibility Wind Dir Wind Speed Gust Speed Precip Events Conditions
12:51 AM 26.6 °F 17.5 °F 26.6 °F 100% 29.77 in 0.2 mi North 9.2 mph 18.4 mph N/A Fog , Snow Blowing Snow
1:51 AM 27.0 °F 20.5 °F 27.0 °F 100% 29.78 in 0.2 mi North 5.8 mph - 0.07 in Fog , Snow Blowing Snow
2:51 AM 28.0 °F 19.3 °F 28.0 °F 100% 29.79 in 0.8 mi NNW 9.2 mph - 0.10 in Snow Light Snow
2:54 AM 28.4 °F 18.5 °F 28.4 °F 100% 29.79 in 1.5 mi NNW 11.5 mph - 0.00 in Snow Light Snow
2:58 AM 28.4 °F 20.4 °F 28.4 °F 100% 29.79 in 3.0 mi NNW 8.1 mph - 0.00 in Snow Light Snow
3:17 AM 28.4 °F 19.7 °F 28.4 °F 100% 29.79 in 4.0 mi North 9.2 mph - 0.01 in Snow Light Snow
3:39 AM 28.4 °F 19.7 °F 26.6 °F 93% 29.80 in 9.0 mi North 9.2 mph 18.4 mph 0.01 in   Overcast
3:51 AM 28.9 °F 19.8 °F 26.1 °F 89% 29.81 in 4.0 mi NNW 10.4 mph 18.4 mph 0.01 in Snow Light Snow
4:51 AM 28.0 °F 20.0 °F 25.0 °F 88% 29.83 in 9.0 mi North 8.1 mph - 0.00 in   Overcast
4:58 AM 28.4 °F 21.2 °F 24.8 °F 86% 29.83 in 10.0 mi NNW 6.9 mph - N/A   Overcast
5:37 AM 28.4 °F 18.5 °F 24.8 °F 86% 29.83 in 7.0 mi NW 11.5 mph 19.6 mph N/A   Overcast
5:51 AM 28.9 °F 19.2 °F 23.0 °F 78% 29.83 in 10.0 mi NW 11.5 mph 18.4 mph N/A   Overcast
6:51 AM 28.9 °F 17.7 °F 23.0 °F 78% 29.86 in 10.0 mi NW 15.0 mph 23.0 mph N/A   Scattered Clouds
7:51 AM 28.9 °F 17.3 °F 21.0 °F 72% 29.89 in 10.0 mi WNW 16.1 mph 21.9 mph N/A   Scattered Clouds
8:51 AM 27.0 °F 16.1 °F 18.0 °F 69% 29.94 in 10.0 mi NW 12.7 mph 24.2 mph N/A   Clear
9:51 AM 26.1 °F 10.4 °F 17.1 °F 69% 29.96 in 8.0 mi NW 26.5 mph 35.7 mph N/A   Clear
10:51 AM 27.0 °F 13.9 °F 16.0 °F 63% 30.00 in 10.0 mi NW 18.4 mph 32.2 mph N/A   Clear
11:51 AM 28.9 °F 17.7 °F 16.0 °F 58% 30.01 in 10.0 mi NNW 15.0 mph 31.1 mph N/A   Clear
12:51 PM 30.0 °F 17.5 °F 14.0 °F 51% 30.02 in 10.0 mi NNW 19.6 mph 34.5 mph N/A   Clear
1:51 PM 32.0 °F 20.8 °F 10.9 °F 42% 30.04 in 10.0 mi NNW 17.3 mph 25.3 mph N/A   Clear
2:51 PM 32.0 °F 20.8 °F 9.0 °F 38% 30.06 in 10.0 mi NW 17.3 mph 29.9 mph 0.00 in   Clear
3:51 PM 32.0 °F 22.1 °F 6.1 °F 34% 30.09 in 10.0 mi NNW 13.8 mph 26.5 mph N/A   Clear
4:51 PM 30.9 °F 21.7 °F 6.1 °F 35% 30.12 in 10.0 mi NNW 11.5 mph 20.7 mph N/A   Clear
5:51 PM 28.9 °F 17.3 °F 3.9 °F 35% 30.16 in 10.0 mi NNW 16.1 mph 26.5 mph N/A   Clear
6:51 PM 28.0 °F 15.7 °F 3.9 °F 36% 30.20 in 10.0 mi NNW 17.3 mph 23.0 mph N/A   Clear
7:51 PM 26.1 °F 17.6 °F 3.0 °F 37% 30.23 in 10.0 mi NNW 8.1 mph - N/A   Clear
8:51 PM 24.1 °F 13.7 °F 3.9 °F 42% 30.26 in 10.0 mi NW 10.4 mph - N/A   Clear
9:51 PM 23.0 °F 10.6 °F 3.9 °F 44% 30.31 in 10.0 mi NW 13.8 mph - N/A   Clear
10:51 PM 21.0 °F 10.6 °F 5.0 °F 50% 30.32 in 10.0 mi NW 9.2 mph - N/A   Clear
11:51 PM 19.9 °F 12.1 °F 5.0 °F 52% 30.35 in 10.0 mi NW 5.8 mph - N/A   Clear